User: anonymous   Login
Location: T�bingen+AIT
(48.5342°N, 9.0700°E)
Time: 14:42:01
(UTC+01:00)
Language:

SPOT 5 - Orbit

View from above orbital plane
View from above orbital plane
View from above satellite
View from above satellite

Ground track
Ground track

The orbit data is extracted from the following two-line orbital elements,

1 27421U 02021A   18320.21386289  .00000047  00000-0  21727-4 0  9998
2 27421  98.3410  27.1033 0134985 183.6403 176.3829 14.51959239860697
Epoch (UTC): 16 November 2018 05:07:57
Eccentricity: 0.0134985
inclination: 98.3410°
perigee height: 623 km
apogee height: 815 km
right ascension of ascending node: 27.1033°
argument of perigee: 183.6403°
revolutions per day: 14.51959239
mean anomaly at epoch: 176.3829°
orbit number at epoch: 86069

The dashed part of the orbit path shows where the satellite is in the earth's shadow,  

DLR